When you browse on this site, cookies collect data to enhance your experience and personalize the content and advertising you see.
Visit our Privacy Policy to learn more. By continuing to use the site, you agree to this use of cookies and data.
  • en Suisse
  • Liste des pays
  • À 7 jours
  • Température de l'eau
  • Carte météo
  • Widgets météo
  • user-avatar
    Se connecter

    Météo par heure à Carmarthen

    Ce jour, 29 Mai, Vendredi

    Heure Température Précipitation Vent Pression Humidité
    00:00 +12°C° 0 mm 3 m/s 768 mmHg 88%
    01:00 +12°C° 0 mm 3 m/s 768 mmHg 87%
    02:00 +12°C° 0 mm 3 m/s 768 mmHg 87%
    03:00 +12°C° 0 mm 3 m/s 768 mmHg 86%
    04:00 +12°C° 0 mm 3 m/s 768 mmHg 86%
    05:00 +13°C° 0 mm 4 m/s 768 mmHg 85%
    06:00 +14°C° 0 mm 4 m/s 768 mmHg 84%
    07:00 +15°C° 0 mm 5 m/s 768 mmHg 78%
    08:00 +16°C° 0 mm 5 m/s 767 mmHg 72%
    09:00 +17°C° 0 mm 6 m/s 767 mmHg 66%
    10:00 +17°C° 0 mm 6 m/s 767 mmHg 64%
    11:00 +17°C° 0 mm 6 m/s 767 mmHg 63%
    12:00 +17°C° 0 mm 6 m/s 767 mmHg 62%
    13:00 +17°C° 0 mm 6 m/s 766 mmHg 63%
    14:00 +19°C° 0 mm 6 m/s 766 mmHg 64%
    15:00 +19°C° 0 mm 6 m/s 766 mmHg 65%
    16:00 +17°C° 0 mm 5 m/s 766 mmHg 68%
    17:00 +17°C° 0 mm 5 m/s 765 mmHg 71%
    18:00 +17°C° 0 mm 4 m/s 765 mmHg 74%
    19:00 +15°C° 0 mm 4 m/s 765 mmHg 76%
    20:00 +14°C° 0 mm 3 m/s 765 mmHg 78%
    21:00 +12°C° 0 mm 3 m/s 765 mmHg 80%
    22:00 +12°C° 0 mm 3 m/s 766 mmHg 79%
    23:00 +12°C° 0 mm 3 m/s 766 mmHg 77%

    Demain, 30 Mai, Samedi

    Heure Température Précipitation Vent Pression Humidité
    00:00 +12°C° 0 mm 3 m/s 766 mmHg 76%
    01:00 +12°C° 0 mm 3 m/s 766 mmHg 78%
    02:00 +12°C° 0 mm 3 m/s 766 mmHg 79%
    03:00 +12°C° 0 mm 3 m/s 765 mmHg 81%
    04:00 +12°C° 0 mm 3 m/s 766 mmHg 83%
    05:00 +13°C° 0 mm 4 m/s 766 mmHg 86%
    06:00 +14°C° 0 mm 4 m/s 766 mmHg 88%
    07:00 +15°C° 0 mm 4 m/s 766 mmHg 84%
    08:00 +17°C° 0 mm 4 m/s 766 mmHg 80%
    09:00 +17°C° 0 mm 5 m/s 766 mmHg 76%
    10:00 +17°C° 0 mm 5 m/s 766 mmHg 74%
    11:00 +17°C° 0 mm 5 m/s 766 mmHg 71%
    12:00 +17°C° 0 mm 5 m/s 766 mmHg 68%
    13:00 +18°C° 0 mm 4 m/s 765 mmHg 65%
    14:00 +18°C° 0 mm 4 m/s 765 mmHg 62%
    15:00 +18°C° 0 mm 4 m/s 765 mmHg 60%
    16:00 +17°C° 0 mm 4 m/s 765 mmHg 63%
    17:00 +17°C° 0 mm 3 m/s 765 mmHg 66%
    18:00 +17°C° 0 mm 3 m/s 765 mmHg 70%
    19:00 +14°C° 0 mm 3 m/s 765 mmHg 73%
    20:00 +12°C° 0 mm 3 m/s 765 mmHg 76%
    21:00 +12°C° 0 mm 2 m/s 765 mmHg 79%
    22:00 +11°C° 0 mm 3 m/s 766 mmHg 81%
    23:00 +11°C° 0 mm 4 m/s 766 mmHg 84%

    Après-demain, 31 Mai, Dimanche

    Heure Température Précipitation Vent Pression Humidité
    00:00 +11°C° 0 mm 4 m/s 766 mmHg 86%
    01:00 +10°C° 0 mm 5 m/s 766 mmHg 89%
    02:00 +10°C° 0 mm 5 m/s 766 mmHg 92%
    03:00 +10°C° 0 mm 5 m/s 766 mmHg 95%
    04:00 +12°C° 0 mm 5 m/s 766 mmHg 94%
    05:00 +12°C° 0 mm 5 m/s 766 mmHg 92%
    06:00 +12°C° 0 mm 5 m/s 766 mmHg 91%
    07:00 +13°C° 0 mm 5 m/s 767 mmHg 88%
    08:00 +13°C° 0 mm 5 m/s 767 mmHg 85%
    09:00 +14°C° 0 mm 5 m/s 767 mmHg 83%
    10:00 +15°C° 0 mm 5 m/s 767 mmHg 79%
    11:00 +16°C° 0 mm 5 m/s 767 mmHg 74%
    12:00 +17°C° 0 mm 5 m/s 767 mmHg 70%
    13:00 +18°C° 0 mm 4 m/s 767 mmHg 69%
    14:00 +18°C° 0 mm 4 m/s 767 mmHg 67%
    15:00 +18°C° 0 mm 4 m/s 766 mmHg 65%
    16:00 +18°C° 0 mm 3 m/s 766 mmHg 68%
    17:00 +17°C° 0 mm 3 m/s 766 mmHg 71%
    18:00 +17°C° 0 mm 3 m/s 766 mmHg 73%
    19:00 +15°C° 0 mm 2 m/s 766 mmHg 77%
    20:00 +14°C° 0 mm 2 m/s 766 mmHg 81%
    21:00 +12°C° 0 mm 2 m/s 767 mmHg 84%
    22:00 +12°C° 0 mm 2 m/s 767 mmHg 84%
    23:00 +12°C° 0 mm 2 m/s 767 mmHg 83%

    1 Juin, Lundi

    Heure Température Précipitation Vent Pression Humidité
    00:00 +12°C° 0 mm 2 m/s 767 mmHg 82%
    01:00 +11°C° 0 mm 1 m/s 766 mmHg 82%
    02:00 +11°C° 0 mm 1 m/s 766 mmHg 83%
    03:00 +11°C° 0 mm 1 m/s 766 mmHg 83%
    04:00 +12°C° 0 mm 1 m/s 766 mmHg 82%
    05:00 +13°C° 0 mm 2 m/s 766 mmHg 81%
    06:00 +14°C° 0 mm 2 m/s 766 mmHg 80%
    07:00 +15°C° 0 mm 2 m/s 766 mmHg 77%
    08:00 +17°C° 0 mm 2 m/s 766 mmHg 74%
    09:00 +18°C° 0 mm 3 m/s 766 mmHg 71%
    10:00 +19°C° 0 mm 3 m/s 766 mmHg 70%
    11:00 +19°C° 0 mm 3 m/s 766 mmHg 68%
    12:00 +20°C° 0 mm 3 m/s 766 mmHg 66%
    13:00 +20°C° 0 mm 3 m/s 766 mmHg 67%
    14:00 +20°C° 0 mm 3 m/s 766 mmHg 67%
    15:00 +20°C° 0 mm 3 m/s 765 mmHg 67%
    16:00 +19°C° 0.1 mm 3 m/s 765 mmHg 73%
    17:00 +19°C° 0.1 mm 3 m/s 765 mmHg 78%
    18:00 +18°C° 0.1 mm 3 m/s 765 mmHg 83%
    19:00 +17°C° 0.2 mm 3 m/s 765 mmHg 85%
    20:00 +16°C° 0.2 mm 2 m/s 765 mmHg 88%
    21:00 +15°C° 0.2 mm 2 m/s 765 mmHg 90%
    22:00 +14°C° 0.3 mm 2 m/s 764 mmHg 91%
    23:00 +14°C° 0.3 mm 2 m/s 764 mmHg 93%

    2 Juin, Mardi

    Heure Température Précipitation Vent Pression Humidité
    00:00 +14°C° 0.3 mm 2 m/s 764 mmHg 94%
    01:00 +13°C° 0.1 mm 2 m/s 764 mmHg 95%
    02:00 +13°C° 0.1 mm 2 m/s 763 mmHg 96%
    03:00 +13°C° 0.1 mm 2 m/s 763 mmHg 97%
    04:00 +13°C° 0.1 mm 2 m/s 763 mmHg 97%
    05:00 +13°C° 0.1 mm 1 m/s 763 mmHg 97%
    06:00 +14°C° 0.1 mm 1 m/s 762 mmHg 97%
    07:00 +14°C° 0.3 mm 2 m/s 762 mmHg 96%
    08:00 +14°C° 0.3 mm 2 m/s 762 mmHg 96%
    09:00 +14°C° 0.3 mm 2 m/s 762 mmHg 95%
    10:00 +14°C° 0.6 mm 2 m/s 762 mmHg 96%
    11:00 +13°C° 0.6 mm 3 m/s 762 mmHg 96%
    12:00 +13°C° 0.6 mm 3 m/s 762 mmHg 97%
    13:00 +13°C° 0.2 mm 3 m/s 762 mmHg 96%
    14:00 +13°C° 0.2 mm 3 m/s 761 mmHg 95%
    15:00 +13°C° 0.2 mm 4 m/s 761 mmHg 94%
    16:00 +13°C° 0.1 mm 4 m/s 761 mmHg 94%
    17:00 +13°C° 0.1 mm 4 m/s 761 mmHg 95%
    18:00 +13°C° 0.1 mm 4 m/s 761 mmHg 95%
    19:00 +13°C° 0.1 mm 4 m/s 761 mmHg 96%
    20:00 +12°C° 0.1 mm 4 m/s 761 mmHg 97%
    21:00 +12°C° 0.1 mm 4 m/s 761 mmHg 97%
    22:00 +12°C° 0.3 mm 5 m/s 761 mmHg 97%
    23:00 +10°C° 0.3 mm 5 m/s 761 mmHg 97%

    3 Juin, Mercredi

    Heure Température Précipitation Vent Pression Humidité
    00:00 +10°C° 0.3 mm 6 m/s 761 mmHg 97%
    01:00 +10°C° 0.4 mm 6 m/s 761 mmHg 96%
    02:00 +9°C° 0.4 mm 6 m/s 761 mmHg 96%
    03:00 +9°C° 0.4 mm 6 m/s 761 mmHg 96%
    04:00 +8°C° 0.1 mm 6 m/s 761 mmHg 95%
    05:00 +8°C° 0.1 mm 6 m/s 762 mmHg 94%
    06:00 +8°C° 0.1 mm 6 m/s 762 mmHg 94%
    07:00 +8°C° 0 mm 6 m/s 762 mmHg 90%
    08:00 +9°C° 0 mm 6 m/s 762 mmHg 86%
    09:00 +9°C° 0 mm 6 m/s 762 mmHg 82%
    10:00 +10°C° 0 mm 5 m/s 762 mmHg 78%
    11:00 +12°C° 0 mm 5 m/s 762 mmHg 74%
    12:00 +13°C° 0 mm 5 m/s 762 mmHg 71%
    13:00 +14°C° 0 mm 6 m/s 762 mmHg 69%
    14:00 +14°C° 0 mm 6 m/s 761 mmHg 68%
    15:00 +14°C° 0 mm 6 m/s 761 mmHg 66%
    16:00 +14°C° 0 mm 6 m/s 761 mmHg 67%
    17:00 +14°C° 0 mm 6 m/s 761 mmHg 69%
    18:00 +13°C° 0 mm 6 m/s 761 mmHg 70%
    19:00 +11°C° 0 mm 6 m/s 761 mmHg 75%
    20:00 +9°C° 0 mm 5 m/s 761 mmHg 80%
    21:00 +8°C° 0 mm 5 m/s 761 mmHg 85%
    22:00 +7°C° 0 mm 4 m/s 761 mmHg 87%
    23:00 +6°C° 0 mm 4 m/s 761 mmHg 88%
    Voir plus